Charter Quote
Worldwide +1-877-727-2538 Call
  Now   Hiring! 
SAFETY RELIABILITY EXPERIENCE

Xianyang Private Jet Charter

Xianyang Private Jet Charter Services

Paramount Business Jets offers private jet charter flights and luxury airliner charters to and from Xianyang.

Xianyang Charter Flight Price Estimates

Paramount Business Jets offers private jet charter flights and luxury airliner charters to and from Xianyang.

AIRPORT INFORMATION
ICAOZLXY
IATAXIY
LOCATIONXi'An, China
FACILITY TYPEAIRPORT

At Paramount Business Jets you can hire chartered private jets to and from Xianyang with as little as 4 hours of notice. All flights booked via Paramount Business Jets are operated by certified direct air carriers that meet and exceed the FAA part 135 and 121 protocol or a foreign equivalent safety authority. Furthermore, Paramount Business Jets subscribes to ARGUS for their third party safety checks of operators, aircraft, and crews prior each and every flight to and from Xianyang and worldwide.

  • Quote a trip using Xianyang or call us 24/7 - 365 days a year at +1-877-727-2538.
Questions? Call +1-877-727-2538

METAR Weather Data at Xianyang, ZLXY, XIY

STATIONZLXY
OBSERVEDMon Aug 3, 20:00 UTC
NOWMon Aug 3, 20:26 UTC
AGE26 min ago
WINDNNE at 4 mph
VISIBILITY10 miles
METARZLXY 032000Z 02002MPS 6000 NSC 25/25 Q1003 NOSIG

Call us on +1-877-727-2538 (24 Hours) to Hire a Private Jet or Get a Quick Quote.

Find Airports Near any Location

Processing
...